Date,TemperatureHighF,TemperatureAvgF,TemperatureLowF,DewpointHighF,DewpointAvgF,DewpointLowF,HumidityHigh,HumidityAvg,HumidityLow,PressureMaxIn,PressureMinIn,WindSpeedMaxMPH,WindSpeedAvgMPH,GustSpeedMaxMPH,PrecipitationSumIn
2013-9-1,85.8,69.7,57.0,50.7,43.5,35.5,50,40,27,30.14,30.04,11,1,11,0.00
2013-9-2,79.5,71.1,63.7,52.9,48.2,44.7,57,45,33,30.10,30.04,16,2,16,0.00
2013-9-3,85.8,72.0,58.3,55.0,48.5,43.6,61,45,30,30.14,30.07,22,1,22,0.00
2013-9-4,84.7,70.5,54.7,54.6,46.3,39.4,60,43,29,30.18,30.07,23,2,23,0.00
2013-9-5,83.8,70.4,55.9,48.9,41.7,35.5,55,37,24,30.13,30.06,17,2,17,0.00
2013-9-6,84.7,68.7,53.8,44.6,38.5,32.7,52,35,22,30.18,30.07,10,2,10,0.00
2013-9-7,86.2,66.0,46.2,42.9,35.8,26.5,51,35,21,30.15,30.05,17,1,17,0.00
2013-9-8,86.5,64.9,45.1,46.1,34.9,26.4,53,35,19,30.15,30.02,10,1,10,0.00
2013-9-9,84.9,66.5,45.3,45.7,33.4,21.9,46,31,20,30.14,29.99,10,1,10,0.00
2013-9-10,84.6,64.6,45.1,43.4,30.6,20.3,44,29,17,30.10,30.00,9,1,9,0.00
2013-9-11,85.8,66.3,48.6,46.2,35.5,24.9,48,33,20,30.14,30.07,10,1,10,0.00
2013-9-12,82.8,66.3,50.2,51.0,41.8,30.1,55,42,30,30.14,30.04,15,1,15,0.00
2013-9-13,85.3,65.9,49.3,54.6,45.7,39.7,72,51,26,30.12,29.99,12,1,12,0.00
2013-9-14,86.5,68.3,48.9,52.8,44.4,36.4,66,45,26,30.05,29.95,11,1,11,0.00
2013-9-15,85.5,67.6,51.1,50.4,40.4,30.4,61,40,25,30.05,29.98,17,2,17,0.00
2013-9-16,86.0,66.9,49.8,46.7,35.2,24.6,45,32,23,30.05,29.96,17,1,17,0.00
2013-9-17,74.5,63.0,50.5,39.0,29.7,21.5,41,29,20,30.05,29.89,18,3,18,0.00
2013-9-18,69.4,55.2,38.8,39.0,28.2,9.6,52,37,20,30.13,30.02,9,2,9,0.00
2013-9-19,75.6,54.9,36.1,34.1,17.0,-2.1,39,23,16,30.14,29.99,7,1,7,0.00
2013-9-20,79.7,58.6,39.0,40.3,18.5,-5.6,35,22,13,30.03,29.89,24,2,24,0.00
2013-9-21,65.3,53.0,45.1,38.7,23.2,-0.8,51,33,14,29.94,29.83,21,2,21,0.00
2013-9-22,66.0,51.2,36.9,37.6,30.8,23.3,73,47,27,30.10,29.92,11,1,11,0.22
2013-9-23,76.6,55.2,36.0,44.1,29.7,13.9,73,41,20,30.14,30.04,8,0,8,0.00
2013-9-24,73.2,57.4,40.8,34.5,19.8,-3.8,41,24,15,30.08,29.89,22,4,22,0.00
2013-9-25,61.0,50.2,40.3,33.7,14.9,-0.1,73,28,11,29.94,29.86,14,3,14,0.00
2013-9-26,54.7,44.1,35.8,32.8,18.0,-10.9,79,44,10,30.09,29.92,13,1,13,0.00
2013-9-27,61.9,46.7,32.2,25.3,10.6,-16.4,59,26,10,30.18,30.10,6,1,6,0.00
2013-9-28,73.8,60.8,35.2,38.3,22.7,-16.0,32,24,10,30.18,30.10,16,2,16,0.00
2013-9-29,70.9,61.9,55.2,29.1,20.0,7.3,27,20,15,30.14,30.09,22,5,22,0.00
2013-9-30,71.4,59.7,49.1,36.4,22.8,5.8,34,25,15,30.12,30.05,15,2,15,0.00